This is the latest recevied weather packets stored in our database for station/object W1HS. If no packets are shown the sender has not sent any weather packets the latest 10 day(s).
| Time | Temp. | Humidity | Pressure | Rain* | Wind** | Luminosity | Snow |
|---|---|---|---|---|---|---|---|
| 1777899680 | 11.67° C | 55% | 988.8 hPa | 0 mm | - | 545 W/m² | - |
| 1777899080 | 11.11° C | 54% | 988.9 hPa | 0 mm | - | 503 W/m² | - |
| 1777898479 | 10.56° C | 57% | 989.1 hPa | 0 mm | - | 480 W/m² | - |
| 1777897879 | 10.56° C | 57% | 989.2 hPa | 0 mm | - | 388 W/m² | - |
| 1777897279 | 10° C | 58% | 989.3 hPa | 0 mm | - | 392 W/m² | - |
| 1777896679 | 9.44° C | 59% | 989.3 hPa | 0 mm | - | 390 W/m² | - |
| 1777896080 | 8.89° C | 62% | 989.3 hPa | 0 mm | - | 267 W/m² | - |
| 1777895479 | 8.33° C | 64% | 989.3 hPa | 0 mm | - | 127 W/m² | - |
| 1777894879 | 7.78° C | 65% | 989.4 hPa | 0 mm | - | 102 W/m² | - |
| 1777894281 | 7.78° C | 65% | 989.4 hPa | 0 mm | - | 49 W/m² | - |
| 1777893679 | 7.78° C | 66% | 989.4 hPa | 0 mm | - | 49 W/m² | - |
| 1777893079 | 7.78° C | 65% | 989.4 hPa | 0 mm | - | 69 W/m² | - |
| 1777892479 | 7.78° C | 66% | 989.4 hPa | 0 mm | - | 82 W/m² | - |
| 1777891879 | 7.22° C | 67% | 989.4 hPa | 0 mm | - | 51 W/m² | - |
| 1777891281 | 7.22° C | 68% | 989.3 hPa | 0 mm | - | 58 W/m² | - |
| 1777890679 | 7.22° C | 68% | 989.3 hPa | 0 mm | - | 42 W/m² | - |
| 1777890079 | 7.78° C | 67% | 989.3 hPa | 0 mm | - | 26 W/m² | - |
| 1777889479 | 7.78° C | 67% | 989.3 hPa | 0 mm | - | 21 W/m² | - |
| 1777888879 | 8.33° C | 67% | 989.2 hPa | 0 mm | - | 11 W/m² | - |
| 1777888280 | 7.78° C | 69% | 989.1 hPa | 0 mm | - | 5 W/m² | - |
| 1777887679 | 7.78° C | 68% | 989.1 hPa | 0 mm | - | 0 W/m² | - |
| 1777887079 | 7.78° C | 71% | 989.2 hPa | 0 mm | - | 0 W/m² | - |
| 1777886479 | 7.78° C | 72% | 989.3 hPa | 0 mm | - | 0 W/m² | - |
| 1777885879 | 8.33° C | 74% | 989.4 hPa | 0 mm | - | 0 W/m² | - |
| 1777885279 | 7.78° C | 74% | 989.3 hPa | 0 mm | - | 0 W/m² | - |
* Rain latest hour (hover to see other rain measurements)
** Current wind speed in m/s (hover to see current wind gust speed)